[[{"header":{"parameterUnit":"m.s-1","parameterCategory":1,"la1":30.2991,"la2":30.254,"lo1":-89.0895,"lo2":-89.0444,"dy":0.0017,"dx":0.0017,"nx":28,"ny":28,"refTime":"2025-04-09T21:00:00:Z","depth":0,"parameterNumber":2,"parameterNumberName":"U-component_of_WINDS"},"data":[0,0,0,0,0,0,0,0,0,0,0,0,0,0,0,0,0,0,0,0,0,0,0,0,0,0,0,0,0,0,0,0,0,0,0,0,0,0,0,0,0,0,0,0,0,0,0,0,0,0,0,0,0,0,0,0,0,0,2.6879,2.6879,0,2.6843,2.6843,2.6843,2.6746,2.6744,2.6742,2.674,2.6705,2.6707,2.6708,0,0,0,0,0,0,0,0,0,0,0,0,0,2.6868,2.6868,2.6879,2.6879,2.6878,2.6843,2.6843,2.6843,2.6746,2.6744,2.6741,2.6739,2.6705,2.6706,2.6708,0,0,0,0,0,0,0,0,0,0,0,0,0,2.6856,2.6869,2.6879,2.6826,2.6821,2.6844,2.6843,2.6842,2.6747,2.6743,2.674,2.6737,2.6705,2.6706,2.6708,2.678,0,0,2.6713,2.6713,0,0,0,0,0,0,0,0,2.6857,2.6857,2.6834,2.683,2.6824,2.6796,2.6826,2.6822,2.6747,2.6775,2.674,2.6736,2.6738,2.6737,2.6737,2.6779,2.6777,2.6713,2.6714,2.6714,2.6715,0,0,0,0,0,0,0,2.6858,2.6858,2.6865,2.6834,2.6828,2.6805,2.68,2.6825,2.6775,2.6772,2.6765,2.6762,2.6735,2.6736,2.6736,2.6777,2.6713,2.6714,2.6715,2.6716,2.6877,2.688,0,0,0,0,0,0,2.6866,2.6859,2.6866,2.6864,2.6833,2.6808,2.6802,2.6808,2.6774,2.6766,2.6765,2.6758,2.6735,2.6734,2.6734,2.6817,2.6714,2.6716,2.6717,2.6874,2.6878,2.6881,0,0,0,0,0,0,2.6866,2.6868,2.6868,2.686,2.6858,2.6811,2.6819,2.6809,2.681,2.6768,2.6759,2.6775,2.6732,2.6732,2.6769,2.6815,2.6716,2.6718,2.687,2.6875,2.688,2.6984,0,0,0,0,0,0,2.6866,2.6868,2.6895,2.6861,2.6859,2.6903,2.6822,2.6811,2.6812,2.6803,2.6775,2.6768,2.673,2.6768,2.6771,2.6815,2.6719,2.6865,2.6872,2.6878,2.6977,2.6992,2.7006,0,0,0,0,0,2.6866,2.6926,2.6896,2.6898,2.689,2.6906,2.6905,2.6859,2.6816,2.6843,2.6817,2.6769,2.6809,2.6772,2.6775,2.6821,2.6862,2.687,2.6878,2.697,2.6989,2.7006,0,0,0,0,0,0,2.6966,2.692,2.6887,2.6937,2.6926,2.689,2.6922,2.688,2.6882,2.6873,2.6817,2.6811,2.6857,2.6842,2.6802,2.689,2.6828,2.6837,2.6898,2.6915,2.693,2.6933,2.672,0,0,0,0,0,2.6994,2.701,2.6969,2.7017,2.7013,2.6969,2.6974,2.6939,2.6926,2.6921,2.6897,2.6887,2.6897,2.6905,2.6912,2.6974,2.6967,2.7007,2.7021,2.7033,2.7042,2.7075,2.7092,2.6906,2.6906,2.6906,0,0,2.7052,2.7029,2.7042,2.7037,2.7024,2.7043,2.6965,2.6988,2.7002,2.6925,2.6959,2.6941,2.6926,2.6977,2.6997,2.6966,2.7092,2.7043,2.7053,2.7055,2.7084,2.7102,2.7118,2.6911,2.691,2.691,0,0,2.7167,2.715,2.7189,2.7178,2.716,2.713,2.714,2.7109,2.7095,2.7128,2.7071,2.7087,2.7106,2.7097,2.7096,2.7209,2.7166,2.7213,2.729,2.7322,2.7337,2.735,2.7391,2.7407,2.7221,2.7222,2.7222,0,2.7241,2.7266,2.7215,2.7241,2.7241,2.7172,2.7212,2.7204,2.719,2.7192,2.7156,2.7179,2.7164,2.7212,2.724,2.724,2.725,2.7216,2.7339,2.7351,2.7362,2.7401,2.7417,2.7228,2.7227,2.7226,2.7226,0,2.7359,2.7377,2.7411,2.7399,2.7402,2.7436,2.7391,2.7401,2.7366,2.7341,2.7377,2.7356,2.7358,2.7367,2.7334,2.7411,2.7392,2.7349,2.7286,2.7387,2.7423,2.7437,2.7236,2.7234,2.7232,2.7231,0,0,2.7536,2.7495,2.7508,2.7502,2.7478,2.7491,2.7522,2.7524,2.7534,2.7527,2.7552,2.757,2.753,2.7528,2.7493,2.7522,2.7615,2.7475,2.7474,2.7503,2.7701,2.7735,2.7753,2.7586,2.7588,2.759,2.7702,0,2.7645,2.7695,2.765,2.7709,2.7726,2.766,2.7687,2.7676,2.7653,2.7665,2.764,2.7654,2.7599,2.7598,2.7623,2.7598,2.7654,2.759,2.761,2.7612,2.7617,2.7771,2.7806,2.7913,2.7716,2.7718,2.772,0,2.7779,2.7778,2.7838,2.7811,2.7816,2.7841,2.784,2.7852,2.7838,2.7819,2.7818,2.7776,2.7805,2.7744,2.7784,2.7742,2.7747,2.7737,2.774,2.7741,2.7673,2.7777,2.7946,2.7962,2.7741,2.774,2.7738,0,2.7904,2.7917,2.7955,2.7952,2.792,2.794,2.7928,2.791,2.7915,2.7914,2.7917,2.792,2.7922,2.7926,2.7886,2.7844,2.7932,2.7867,2.7919,2.792,2.7941,2.7941,2.8114,2.7944,2.7943,2.7943,2.7943,0,2.8032,2.8072,2.8011,2.8035,2.8078,2.8026,2.8071,2.8052,2.8038,2.8057,2.8001,2.8021,2.7967,2.7982,2.7951,2.799,2.7991,2.7978,2.797,2.7984,2.7986,2.7987,2.798,2.7947,2.7946,2.7945,2.7945,0,2.8179,2.8139,2.8177,2.8144,2.8137,2.817,2.8142,2.8163,2.8137,2.8163,2.8166,2.8125,2.8139,2.81,2.8108,2.8087,2.8145,2.8124,2.815,2.8144,2.8199,2.8195,2.838,2.8403,2.8217,2.8219,2.822,0,2.8263,2.8292,2.8262,2.8271,2.8262,2.8277,2.8281,2.8232,2.8239,2.8226,2.825,2.8259,2.8264,2.8291,2.8262,2.8269,2.8249,2.8313,2.8249,2.8263,2.8251,2.825,2.8254,2.8327,2.8329,2.8331,2.8332,0,2.8417,2.8397,2.8404,2.8406,2.8413,2.8412,2.8407,2.8418,2.8365,2.8376,2.839,2.8394,2.8403,2.8414,2.8414,2.8403,2.836,2.8353,2.8365,2.8381,2.8395,2.8389,2.8187,2.8349,2.8347,2.8346,2.8345,2.8344,2.8536,2.856,2.8543,2.8554,2.8545,2.8542,2.8561,2.8536,2.8547,2.855,2.852,2.8541,2.8527,2.8524,2.8517,2.8533,2.8503,2.8521,2.8526,2.8532,2.8542,2.8392,2.8533,2.8532,2.8532,2.8531,2.8531,0,2.8689,2.8675,2.8686,2.8681,2.869,2.8647,2.864,2.8651,2.8669,2.866,2.8666,2.8683,2.8694,2.8667,2.8673,2.8692,2.8672,2.8695,2.8694,2.8693,2.8567,2.8556,2.8711,2.8711,2.8711,2.8711,2.8711,2.8711,2.877,2.8807,2.8785,2.8819,2.8804,2.8823,2.8823,2.8821,2.8813,2.8834,2.8842,2.8824,2.8808,2.8814,2.8822,2.8814,2.882,2.885,2.8835,2.8719,2.8701,2.8684,2.8674,2.8851,2.8851,2.8959,2.896,2.8961]},{"header":{"parameterUnit":"m.s-1","parameterCategory":1,"la1":30.2991,"la2":30.254,"lo1":-89.0895,"lo2":-89.0444,"dy":0.0017,"dx":0.0017,"nx":28,"ny":28,"refTime":"2025-04-09T21:00:00:Z","depth":0,"parameterNumber":3,"parameterNumberName":"V-component_of_WINDS"},"data":[0,0,0,0,0,0,0,0,0,0,0,0,0,0,0,0,0,0,0,0,0,0,0,0,0,0,0,0,0,0,0,0,0,0,0,0,0,0,0,0,0,0,0,0,0,0,0,0,0,0,0,0,0,0,0,0,0,0,-4.0893,-4.0894,0,-4.0973,-4.0974,-4.0975,-4.0924,-4.0921,-4.0919,-4.0917,-4.0999,-4.1003,-4.1008,0,0,0,0,0,0,0,0,0,0,0,0,0,-4.0695,-4.0699,-4.0893,-4.0894,-4.0895,-4.0973,-4.0974,-4.0975,-4.0924,-4.0921,-4.0918,-4.0916,-4.0997,-4.1003,-4.1008,0,0,0,0,0,0,0,0,0,0,0,0,0,-4.0779,-4.07,-4.0892,-4.0879,-4.0878,-4.0973,-4.0974,-4.0976,-4.0925,-4.0921,-4.0918,-4.0914,-4.0996,-4.1002,-4.1009,-4.1122,0,0,-4.1029,-4.1032,0,0,0,0,0,0,0,0,-4.0774,-4.0786,-4.088,-4.088,-4.0879,-4.0935,-4.0935,-4.1025,-4.0926,-4.0907,-4.0917,-4.0913,-4.098,-4.0988,-4.1011,-4.1125,-4.1129,-4.103,-4.1034,-4.1036,-4.1038,0,0,0,0,0,0,0,-4.0768,-4.0782,-4.0924,-4.0881,-4.0881,-4.0869,-4.0876,-4.0951,-4.0963,-4.0908,-4.0905,-4.0915,-4.098,-4.1005,-4.1013,-4.113,-4.1029,-4.1035,-4.1039,-4.1042,-4.1342,-4.1346,0,0,0,0,0,0,-4.0764,-4.0778,-4.0922,-4.0927,-4.0817,-4.0875,-4.0884,-4.0921,-4.0962,-4.0965,-4.0918,-4.0913,-4.0995,-4.1005,-4.1015,-4.1151,-4.1036,-4.1043,-4.1046,-4.1338,-4.1343,-4.1348,0,0,0,0,0,0,-4.076,-4.0777,-4.0919,-4.0851,-4.0869,-4.0882,-4.0924,-4.0924,-4.0949,-4.0969,-4.0971,-4.0942,-4.0993,-4.1006,-4.1096,-4.1153,-4.1046,-4.1052,-4.1334,-4.134,-4.1345,-4.1423,0,0,0,0,0,0,-4.0754,-4.0776,-4.0818,-4.0853,-4.0872,-4.0998,-4.0927,-4.0928,-4.0961,-4.0954,-4.0992,-4.0995,-4.0991,-4.1086,-4.1102,-4.116,-4.1057,-4.1329,-4.1336,-4.1344,-4.1415,-4.143,-4.1444,0,0,0,0,0,-4.0747,-4.0837,-4.0821,-4.0839,-4.0926,-4.1001,-4.1012,-4.1006,-4.0966,-4.1009,-4.1022,-4.0993,-4.1144,-4.1096,-4.1114,-4.1174,-4.1325,-4.1334,-4.1343,-4.1409,-4.1427,-4.1443,0,0,0,0,0,0,-4.0808,-4.0841,-4.0824,-4.0927,-4.0962,-4.0992,-4.1047,-4.1027,-4.1073,-4.1065,-4.1056,-4.1065,-4.1159,-4.1175,-4.1121,-4.1286,-4.1228,-4.1241,-4.1272,-4.129,-4.1304,-4.1298,-4.1062,0,0,0,0,0,-4.0834,-4.0892,-4.0917,-4.1006,-4.1024,-4.1033,-4.1065,-4.1058,-4.1094,-4.1108,-4.1127,-4.1163,-4.1219,-4.1255,-4.1307,-4.1417,-4.1425,-4.1468,-4.1482,-4.1494,-4.1505,-4.1566,-4.1585,-4.1377,-4.1377,-4.1377,0,0,-4.0887,-4.0912,-4.0949,-4.1019,-4.1045,-4.1106,-4.1045,-4.1112,-4.1157,-4.1118,-4.1204,-4.122,-4.1259,-4.136,-4.1405,-4.1377,-4.1565,-4.1506,-4.1515,-4.152,-4.1577,-4.1597,-4.1614,-4.1383,-4.1382,-4.1381,0,0,-4.1014,-4.1039,-4.1116,-4.1144,-4.1185,-4.119,-4.1209,-4.1243,-4.1252,-4.1339,-4.1311,-4.1365,-4.146,-4.149,-4.1517,-4.1659,-4.1634,-4.1676,-4.1751,-4.181,-4.1826,-4.1841,-4.1892,-4.191,-4.1687,-4.1687,-4.1687,0,-4.1075,-4.1165,-4.1158,-4.1228,-4.1259,-4.1228,-4.1306,-4.1333,-4.1389,-4.1412,-4.1379,-4.1499,-4.1523,-4.1631,-4.1666,-4.1689,-4.1711,-4.1671,-4.1825,-4.1839,-4.1853,-4.1901,-4.192,-4.1692,-4.1692,-4.1691,-4.1691,0,-4.1239,-4.1302,-4.1359,-4.1415,-4.1453,-4.1527,-4.1531,-4.1571,-4.1561,-4.157,-4.1659,-4.1687,-4.1745,-4.177,-4.176,-4.1877,-4.1858,-4.1826,-4.1767,-4.1877,-4.1923,-4.1941,-4.1699,-4.1697,-4.1696,-4.1695,0,0,-4.1405,-4.1457,-4.1478,-4.1504,-4.1547,-4.1596,-4.1669,-4.1726,-4.176,-4.18,-4.1861,-4.1944,-4.1914,-4.1946,-4.1939,-4.1991,-4.2103,-4.1952,-4.1953,-4.198,-4.2234,-4.2258,-4.228,-4.2087,-4.2091,-4.2093,-4.2231,0,-4.1536,-4.1663,-4.1659,-4.1777,-4.1836,-4.1808,-4.1871,-4.1905,-4.1916,-4.1968,-4.198,-4.2039,-4.1995,-4.2014,-4.2064,-4.2078,-4.2154,-4.2068,-4.2144,-4.2147,-4.2135,-4.2304,-4.2329,-4.2458,-4.2248,-4.2251,-4.2254,0,-4.1705,-4.1751,-4.1876,-4.1912,-4.1936,-4.1993,-4.2046,-4.2096,-4.2134,-4.2139,-4.2175,-4.2161,-4.2235,-4.2175,-4.2278,-4.222,-4.2251,-4.2263,-4.2268,-4.2274,-4.2207,-4.2315,-4.2498,-4.2518,-4.2281,-4.2279,-4.2277,0,-4.1815,-4.1909,-4.1995,-4.2018,-4.2062,-4.2103,-4.2123,-4.2158,-4.2193,-4.2239,-4.2262,-4.2316,-4.2346,-4.2389,-4.239,-4.2346,-4.2494,-4.2434,-4.25,-4.25,-4.2532,-4.253,-4.2723,-4.2552,-4.2552,-4.2552,-4.2551,0,-4.1961,-4.2038,-4.2045,-4.2099,-4.2185,-4.218,-4.2266,-4.2282,-4.2314,-4.237,-4.2349,-4.2402,-4.2401,-4.2455,-4.2457,-4.2542,-4.2556,-4.2562,-4.2561,-4.2564,-4.2563,-4.2584,-4.2575,-4.2557,-4.2556,-4.2555,-4.2554,0,-4.2098,-4.2106,-4.2199,-4.2233,-4.2244,-4.2306,-4.2336,-4.2387,-4.2397,-4.2468,-4.2485,-4.25,-4.2563,-4.2569,-4.2642,-4.2643,-4.2747,-4.2737,-4.2734,-4.2732,-4.2799,-4.2793,-4.3012,-4.3041,-4.2851,-4.2853,-4.2854,0,-4.219,-4.2249,-4.2291,-4.2328,-4.235,-4.2409,-4.2445,-4.2444,-4.2482,-4.2532,-4.2577,-4.2638,-4.2687,-4.279,-4.2808,-4.2864,-4.2855,-4.2928,-4.2863,-4.2864,-4.2857,-4.2853,-4.286,-4.294,-4.2943,-4.2944,-4.2946,0,-4.2354,-4.2356,-4.2408,-4.2464,-4.2507,-4.2551,-4.2591,-4.2622,-4.2625,-4.267,-4.2735,-4.2773,-4.2849,-4.291,-4.2966,-4.2987,-4.2968,-4.2966,-4.2984,-4.2988,-4.2984,-4.2987,-4.2769,-4.2961,-4.2959,-4.2958,-4.2957,-4.2957,-4.2472,-4.2524,-4.2561,-4.2621,-4.2652,-4.2691,-4.2741,-4.2757,-4.2811,-4.2873,-4.2869,-4.2941,-4.2979,-4.3052,-4.3077,-4.3134,-4.3109,-4.3136,-4.3143,-4.3149,-4.3157,-4.2975,-4.3144,-4.3144,-4.3143,-4.3143,-4.3143,0,-4.2635,-4.2659,-4.2714,-4.2771,-4.2819,-4.2797,-4.2841,-4.2882,-4.2946,-4.2984,-4.3033,-4.3108,-4.3168,-4.3191,-4.325,-4.3291,-4.3284,-4.3307,-4.3303,-4.3309,-4.3175,-4.3153,-4.3312,-4.3312,-4.3311,-4.3311,-4.3311,-4.3311,-4.2726,-4.2812,-4.2818,-4.292,-4.2943,-4.3013,-4.3041,-4.3076,-4.3106,-4.3192,-4.3242,-4.3256,-4.3289,-4.335,-4.3404,-4.341,-4.3433,-4.3459,-4.3461,-4.3335,-4.3318,-4.3302,-4.3282,-4.3464,-4.3465,-4.3591,-4.3592,-4.3593]}]]